Regional Weather Roundup
Issued by NWS

Home | Current Version | Previous Version | Text Only | Print | Product List | Glossary Off
Versions: 1 2 3 4 5 6 7 8 9 10 11 12 13 14 15 16 17 18 19 20 21 22 23 24 25 26 27

000
ASUS45 KBOU 231707
RWRCO

WEATHER ROUNDUP FOR COLORADO
NATIONAL WEATHER SERVICE DENVER/BOULDER CO
1000 AM MST MON JAN 23 2017

NOTE: "FAIR" INDICATES FEW OR NO CLOUDS BELOW 12000 FEET WITH NO
SIGNIFICANT WEATHER AND/OR OBSTRUCTIONS TO VISIBILITY.

COZ001>005-013-030-031-231800-
...NORTHWEST COLORADO...

CITY           SKY/WX    TMP DP  RH WIND       PRES   REMARKS
CRAIG          CLOUDY    32  24  72 E6        29.64F WCI  26
HAYDEN         PTSUNNY   27  19  74 NE8       29.64F WCI  18
MEEKER         CLOUDY    38  27  64 SW12G20   29.64S
MOUNT WERNER   NOT AVBL
STEAMBOAT SPGS NOT AVBL
WALDEN           N/A     30  23  74 S15G22    29.63S WCI  19
$$

COZ006>008-011-231800-
...WEST CENTRAL VALLEYS...

CITY           SKY/WX    TMP DP  RH WIND       PRES   REMARKS
GRAND JUNCTION CLOUDY    43  31  62 S21       29.68F
MONTROSE       FAIR      44  28  53 SW17G31   29.71F
EAGLE          PTSUNNY   30  27  86 CALM      29.72F
RIFLE          CLOUDY    35  30  82 E5        29.69F WCI  31
DELTA          CLOUDY    40  31  70 NE5       29.73F
NUCLA          CLOUDY    41  28  60 SW20G31   29.77S
$$

COZ017>023-064>068-231800-
...SOUTHWEST COLORADO...

CITY           SKY/WX    TMP DP  RH WIND       PRES   REMARKS
DURANGO        CLOUDY    27  23  85 N5        29.90R WCI  22
CORTEZ         CLOUDY    37  29  72 SE10      29.84F
PAGOSA SPRINGS CLOUDY    26  25  96 CALM      29.89S
TELLURIDE      NOT AVBL
WOLF CREEK PAS CLOUDY    12  12 100 S22G33    29.83S WCI  -7
$$

COZ009-010-012-014-032>034-037-058>063-231800-
...CENTRAL COLORADO...

CITY           SKY/WX    TMP DP  RH WIND       PRES   REMARKS
ASPEN          CLOUDY    31  27  85 S3        29.68F
BUENA VISTA    FLURRIES  28  20  71 SE15G22   29.71F WCI  17
COPPER MTN     NOT AVBL
BERTHOUD PASS  CLOUDY    14   3  62 MISG      29.64F
COTTONWOOD PAS LGT SNOW  27  23  86 SE5       29.70F WCI  21
GUNNISON       PTSUNNY   22  16  78 W8        29.75F WCI  12
KREMMLING      LGT SNOW  36  28  75 W8        29.69S
LEADVILLE      LGT SNOW  20  17  88 VRB3      29.68S FOG
MONARCH PASS   CLOUDY    16  12  86 MISG      29.79S
SALIDA         CLOUDY    34  20  56 S15G22    29.81F WCI  25
SUNLIGHT       CLOUDY    19  19 100 SW20G35   29.70F WCI   4
WILKERSON PASS CLOUDY   N/A N/A N/A SW9G16    29.73S
$$

COZ069>075-231800-
...SAN LUIS VALLEY/SANGRE DE CRISTO MOUNTAINS...

CITY           SKY/WX    TMP DP  RH WIND       PRES   REMARKS
ALAMOSA        FAIR      31  23  72 S17G26    29.81S WCI  19
LA VETA PASS   CLOUDY    27  19  74 NE25G45   29.76S WCI  11
SAGUACHE       FAIR      23  16  74 NW3       29.80F
$$

COZ035-036-038>040-231800-
...NORTHERN COLORADO FRONT RANGE...

CITY           SKY/WX    TMP DP  RH WIND       PRES   REMARKS
DENVER INTL AP FAIR      46  23  40 SW16      29.61F
DMNS CITY PARK   N/A     47  20  34 SW5       29.62F
AURORA         MOSUNNY   45  22  40 SW15      29.62F
FRONT RANGE AP MOSUNNY   48  25  40 SW16G23   29.62F
ERIE MUNI ARPT FAIR      45  19  34 CALM      29.62F
BOULDER MUN AP PTSUNNY   46  23  39 SE3       29.61F
CENTENNIAL     FAIR      45  20  36 SW8       29.63F
BROOMFIELD     MOSUNNY   45  19  36 SE5       29.63F
FORT COLLINS   NOT AVBL
LONGMONT       PTSUNNY   47  22  38 CALM      29.63F
$$

COZ041-046-047-076>085-087-088-231800-
...PIKES PEAK/PALMER DIVIDE AND SOUTHERN FOOTHILLS...

CITY           SKY/WX    TMP DP  RH WIND       PRES   REMARKS
COLO. SPRINGS  FAIR      47  18  31 SW20      29.69F
A. F. ACADEMY  FAIR      46  17  31 VRB5      29.67F
SCHRIEVER AFB  NOT AVBL
ELLICOTT       FAIR     N/A N/A N/A SW15      29.68F
FALCON         FAIR      45  16  31 SW18G24   29.70S
FORT CARSON    NOT AVBL
LIMON          FAIR      42  23  46 CALM      29.64F
MONUMENT HILL  FAIR      41  19  42 SW22      29.67F
TRINIDAD       FAIR      44  23  43 W14G26    29.78F
$$

COZ042>045-048>051-090-091-231800-
...NORTHEAST COLORADO...

CITY           SKY/WX    TMP DP  RH WIND       PRES   REMARKS
GREELEY ARPT   FAIR      32  21  64 CALM      29.65F
AKRON          FAIR      38  22  52 W14       29.62S
BURLINGTON     FAIR      41  28  60 S15       29.65F
WRAY           NOT AVBL
STERLING       FAIR      34  28  80 SW8       29.64S WCI  27
HOLYOKE        FAIR      41  30  65 SW3       29.65S
FORT MORGAN    FAIR      35  24  63 W6        29.65R WCI  30
$$

COZ086-089-092>099-231800-
...SOUTHEAST COLORADO...

CITY           SKY/WX    TMP DP  RH WIND       PRES   REMARKS
PUEBLO         FAIR      46  22  38 SW7       29.71S
LA JUNTA       FAIR      43  28  55 E5        29.70F
LAMAR          FAIR      44  27  51 W14       29.67F
SPRINGFIELD      N/A     56  27  32 W20G29    29.71F
$$




USA.gov is the U.S. government's official web portal to all federal, state and local government web resources and services.